Epoch 2003 Nov. 17.0 TT = JDT 2452960.5 T 2003 Nov. 9.46257 TT MPC q 1.6524247 (2000.0) P Q n 0.00780203 Peri. 113.28835 +0.27538798 +0.13113485 a 25.1766386 Node 256.74249 -0.04434835 +0.99133083 e 0.9343667 Incl. 78.07610 +0.96030968 +0.00817541 P 126.33 >From 93 observations 2003 Nov. 16-2004 Feb. 13, mean residual 0".71.
m1 = 12.0 + 5 logΔ + 17.5 log r